[{"OBJECT_NAME":"UNKNOWN","OBJECT_ID":"","EPOCH":"2026-09-07T13:34:36.923232","MEAN_MOTION":12.11994163,"ECCENTRICITY":0.0856874,"INCLINATION":83.337,"RA_OF_ASC_NODE":345.8702,"ARG_OF_PERICENTER":291.2205,"MEAN_ANOMALY":59.946,"EPHEMERIS_TYPE":0,"CLASSIFICATION_TYPE":"U","NORAD_CAT_ID":270217,"ELEMENT_SET_NO":999,"REV_AT_EPOCH":29921,"BSTAR":0.0064543063,"MEAN_MOTION_DOT":0.00001884,"MEAN_MOTION_DDOT":0},{"OBJECT_NAME":"UNKNOWN","OBJECT_ID":"","EPOCH":"2026-08-30T18:37:02.563104","MEAN_MOTION":12.56946232,"ECCENTRICITY":0.00295078,"INCLINATION":101.9557,"RA_OF_ASC_NODE":230.4331,"ARG_OF_PERICENTER":74.9596,"MEAN_ANOMALY":285.474,"EPHEMERIS_TYPE":0,"CLASSIFICATION_TYPE":"U","NORAD_CAT_ID":270219,"ELEMENT_SET_NO":999,"REV_AT_EPOCH":30826,"BSTAR":0.00015607368,"MEAN_MOTION_DOT":-2e-7,"MEAN_MOTION_DDOT":0},{"OBJECT_NAME":"UNKNOWN","OBJECT_ID":"","EPOCH":"2026-09-10T04:13:52.564512","MEAN_MOTION":14.51075991,"ECCENTRICITY":0.00243674,"INCLINATION":81.2096,"RA_OF_ASC_NODE":209.5458,"ARG_OF_PERICENTER":181.3275,"MEAN_ANOMALY":178.7858,"EPHEMERIS_TYPE":0,"CLASSIFICATION_TYPE":"U","NORAD_CAT_ID":270220,"ELEMENT_SET_NO":999,"REV_AT_EPOCH":35108,"BSTAR":0.0013111308,"MEAN_MOTION_DOT":0.00005227,"MEAN_MOTION_DDOT":0},{"OBJECT_NAME":"UNKNOWN","OBJECT_ID":"","EPOCH":"2026-08-15T02:22:35.150880","MEAN_MOTION":12.95685722,"ECCENTRICITY":0.0035314,"INCLINATION":90.2575,"RA_OF_ASC_NODE":7.8843,"ARG_OF_PERICENTER":47.7122,"MEAN_ANOMALY":312.6982,"EPHEMERIS_TYPE":0,"CLASSIFICATION_TYPE":"U","NORAD_CAT_ID":270222,"ELEMENT_SET_NO":999,"REV_AT_EPOCH":31449,"BSTAR":-0.00025116274,"MEAN_MOTION_DOT":-6.4e-7,"MEAN_MOTION_DDOT":0},{"OBJECT_NAME":"UNKNOWN","OBJECT_ID":"","EPOCH":"2026-08-29T12:35:10.023648","MEAN_MOTION":13.41311563,"ECCENTRICITY":0.05182786,"INCLINATION":73.1527,"RA_OF_ASC_NODE":343.1586,"ARG_OF_PERICENTER":147.2475,"MEAN_ANOMALY":216.1911,"EPHEMERIS_TYPE":0,"CLASSIFICATION_TYPE":"U","NORAD_CAT_ID":270224,"ELEMENT_SET_NO":999,"REV_AT_EPOCH":32286,"BSTAR":0.0033617045,"MEAN_MOTION_DOT":0.00004119,"MEAN_MOTION_DDOT":0},{"OBJECT_NAME":"UNKNOWN","OBJECT_ID":"","EPOCH":"2026-09-08T10:48:18.385920","MEAN_MOTION":11.67005934,"ECCENTRICITY":0.03988837,"INCLINATION":101.2491,"RA_OF_ASC_NODE":307.5985,"ARG_OF_PERICENTER":101.4993,"MEAN_ANOMALY":263.1091,"EPHEMERIS_TYPE":0,"CLASSIFICATION_TYPE":"U","NORAD_CAT_ID":270226,"ELEMENT_SET_NO":999,"REV_AT_EPOCH":28653,"BSTAR":-0.0011957652,"MEAN_MOTION_DOT":-0.0000011,"MEAN_MOTION_DDOT":0},{"OBJECT_NAME":"UNKNOWN","OBJECT_ID":"","EPOCH":"2026-08-30T14:46:13.809504","MEAN_MOTION":12.24580359,"ECCENTRICITY":0.01408627,"INCLINATION":74.0116,"RA_OF_ASC_NODE":8.2331,"ARG_OF_PERICENTER":342.5815,"MEAN_ANOMALY":17.0416,"EPHEMERIS_TYPE":0,"CLASSIFICATION_TYPE":"U","NORAD_CAT_ID":270228,"ELEMENT_SET_NO":999,"REV_AT_EPOCH":29772,"BSTAR":0.00017950876,"MEAN_MOTION_DOT":5e-8,"MEAN_MOTION_DDOT":0},{"OBJECT_NAME":"UNKNOWN","OBJECT_ID":"","EPOCH":"2026-09-10T00:52:25.965696","MEAN_MOTION":13.91448512,"ECCENTRICITY":0.01436063,"INCLINATION":98.9339,"RA_OF_ASC_NODE":170.2863,"ARG_OF_PERICENTER":25.8972,"MEAN_ANOMALY":334.9286,"EPHEMERIS_TYPE":0,"CLASSIFICATION_TYPE":"U","NORAD_CAT_ID":270229,"ELEMENT_SET_NO":999,"REV_AT_EPOCH":33972,"BSTAR":0.00045637625,"MEAN_MOTION_DOT":0.00000586,"MEAN_MOTION_DDOT":0},{"OBJECT_NAME":"UNKNOWN","OBJECT_ID":"","EPOCH":"2026-09-08T03:44:39.795360","MEAN_MOTION":12.21905337,"ECCENTRICITY":0.0325273,"INCLINATION":102.9484,"RA_OF_ASC_NODE":230.0463,"ARG_OF_PERICENTER":329.8368,"MEAN_ANOMALY":28.4303,"EPHEMERIS_TYPE":0,"CLASSIFICATION_TYPE":"U","NORAD_CAT_ID":270230,"ELEMENT_SET_NO":999,"REV_AT_EPOCH":29600,"BSTAR":0.0096420219,"MEAN_MOTION_DOT":0.00001162,"MEAN_MOTION_DDOT":0},{"OBJECT_NAME":"UNKNOWN","OBJECT_ID":"","EPOCH":"2026-09-01T02:51:20.771424","MEAN_MOTION":12.92940667,"ECCENTRICITY":0.07013251,"INCLINATION":72.9651,"RA_OF_ASC_NODE":27.8534,"ARG_OF_PERICENTER":344.0758,"MEAN_ANOMALY":13.9221,"EPHEMERIS_TYPE":0,"CLASSIFICATION_TYPE":"U","NORAD_CAT_ID":270232,"ELEMENT_SET_NO":999,"REV_AT_EPOCH":31189,"BSTAR":0.00075853684,"MEAN_MOTION_DOT":0.00000609,"MEAN_MOTION_DDOT":0},{"OBJECT_NAME":"UNKNOWN","OBJECT_ID":"","EPOCH":"2026-09-09T18:12:34.948512","MEAN_MOTION":14.38631268,"ECCENTRICITY":0.00309936,"INCLINATION":98.6283,"RA_OF_ASC_NODE":259.5968,"ARG_OF_PERICENTER":282.2647,"MEAN_ANOMALY":77.5071,"EPHEMERIS_TYPE":0,"CLASSIFICATION_TYPE":"U","NORAD_CAT_ID":270233,"ELEMENT_SET_NO":999,"REV_AT_EPOCH":34745,"BSTAR":0.000084412276,"MEAN_MOTION_DOT":0.00000215,"MEAN_MOTION_DDOT":0},{"OBJECT_NAME":"UNKNOWN","OBJECT_ID":"","EPOCH":"2026-09-09T08:39:05.814144","MEAN_MOTION":13.59487745,"ECCENTRICITY":0.01486391,"INCLINATION":82.9335,"RA_OF_ASC_NODE":291.5787,"ARG_OF_PERICENTER":64.1094,"MEAN_ANOMALY":297.529,"EPHEMERIS_TYPE":0,"CLASSIFICATION_TYPE":"U","NORAD_CAT_ID":270235,"ELEMENT_SET_NO":999,"REV_AT_EPOCH":33300,"BSTAR":0.00037982262,"MEAN_MOTION_DOT":0.00000318,"MEAN_MOTION_DDOT":0},{"OBJECT_NAME":"UNKNOWN","OBJECT_ID":"","EPOCH":"2026-09-11T14:18:30.994848","MEAN_MOTION":12.95583043,"ECCENTRICITY":0.00277676,"INCLINATION":90.2426,"RA_OF_ASC_NODE":5.345,"ARG_OF_PERICENTER":300.343,"MEAN_ANOMALY":59.4944,"EPHEMERIS_TYPE":0,"CLASSIFICATION_TYPE":"U","NORAD_CAT_ID":270236,"ELEMENT_SET_NO":999,"REV_AT_EPOCH":31355,"BSTAR":0.0016222804,"MEAN_MOTION_DOT":0.00000466,"MEAN_MOTION_DDOT":0},{"OBJECT_NAME":"UNKNOWN","OBJECT_ID":"","EPOCH":"2026-09-11T07:10:52.777344","MEAN_MOTION":12.96053245,"ECCENTRICITY":0.00231517,"INCLINATION":90.2552,"RA_OF_ASC_NODE":9.2191,"ARG_OF_PERICENTER":68.0333,"MEAN_ANOMALY":292.3244,"EPHEMERIS_TYPE":0,"CLASSIFICATION_TYPE":"U","NORAD_CAT_ID":270237,"ELEMENT_SET_NO":999,"REV_AT_EPOCH":31242,"BSTAR":0.004313313,"MEAN_MOTION_DOT":0.00001236,"MEAN_MOTION_DDOT":0},{"OBJECT_NAME":"UNKNOWN","OBJECT_ID":"","EPOCH":"2026-09-04T07:46:41.138400","MEAN_MOTION":12.80863324,"ECCENTRICITY":0.01160269,"INCLINATION":63.524,"RA_OF_ASC_NODE":275.5764,"ARG_OF_PERICENTER":59.9267,"MEAN_ANOMALY":301.3174,"EPHEMERIS_TYPE":0,"CLASSIFICATION_TYPE":"U","NORAD_CAT_ID":270238,"ELEMENT_SET_NO":999,"REV_AT_EPOCH":30849,"BSTAR":0.00038635092,"MEAN_MOTION_DOT":1.7e-7,"MEAN_MOTION_DDOT":0},{"OBJECT_NAME":"UNKNOWN","OBJECT_ID":"","EPOCH":"2026-08-31T02:04:25.458528","MEAN_MOTION":12.28016401,"ECCENTRICITY":0.01528056,"INCLINATION":82.4388,"RA_OF_ASC_NODE":170.5254,"ARG_OF_PERICENTER":67.4477,"MEAN_ANOMALY":294.2684,"EPHEMERIS_TYPE":0,"CLASSIFICATION_TYPE":"U","NORAD_CAT_ID":270239,"ELEMENT_SET_NO":999,"REV_AT_EPOCH":179,"BSTAR":0.032890787,"MEAN_MOTION_DOT":0.00003921,"MEAN_MOTION_DDOT":0},{"OBJECT_NAME":"UNKNOWN","OBJECT_ID":"","EPOCH":"2026-08-31T19:23:41.367552","MEAN_MOTION":12.65299231,"ECCENTRICITY":0.00967747,"INCLINATION":82.4289,"RA_OF_ASC_NODE":74.275,"ARG_OF_PERICENTER":359.603,"MEAN_ANOMALY":0.4969,"EPHEMERIS_TYPE":0,"CLASSIFICATION_TYPE":"U","NORAD_CAT_ID":270240,"ELEMENT_SET_NO":999,"REV_AT_EPOCH":30155,"BSTAR":0.012188739,"MEAN_MOTION_DOT":0.00002322,"MEAN_MOTION_DDOT":0},{"OBJECT_NAME":"UNKNOWN","OBJECT_ID":"","EPOCH":"2026-09-09T00:54:03.519072","MEAN_MOTION":12.94409508,"ECCENTRICITY":0.00299731,"INCLINATION":90.2537,"RA_OF_ASC_NODE":8.2237,"ARG_OF_PERICENTER":38.3157,"MEAN_ANOMALY":322.0084,"EPHEMERIS_TYPE":0,"CLASSIFICATION_TYPE":"U","NORAD_CAT_ID":270241,"ELEMENT_SET_NO":999,"REV_AT_EPOCH":31155,"BSTAR":-0.00038252796,"MEAN_MOTION_DOT":-9.9e-7,"MEAN_MOTION_DDOT":0},{"OBJECT_NAME":"UNKNOWN","OBJECT_ID":"","EPOCH":"2026-09-10T14:20:34.581408","MEAN_MOTION":12.98641164,"ECCENTRICITY":0.00462412,"INCLINATION":90.2465,"RA_OF_ASC_NODE":9.3821,"ARG_OF_PERICENTER":140.4682,"MEAN_ANOMALY":219.9827,"EPHEMERIS_TYPE":0,"CLASSIFICATION_TYPE":"U","NORAD_CAT_ID":270242,"ELEMENT_SET_NO":999,"REV_AT_EPOCH":31253,"BSTAR":-0.00037403239,"MEAN_MOTION_DOT":-0.00000103,"MEAN_MOTION_DDOT":0},{"OBJECT_NAME":"UNKNOWN","OBJECT_ID":"","EPOCH":"2026-09-02T07:20:14.013600","MEAN_MOTION":10.71483199,"ECCENTRICITY":0.09913227,"INCLINATION":101.873,"RA_OF_ASC_NODE":93.2933,"ARG_OF_PERICENTER":242.7122,"MEAN_ANOMALY":106.9543,"EPHEMERIS_TYPE":0,"CLASSIFICATION_TYPE":"U","NORAD_CAT_ID":270246,"ELEMENT_SET_NO":999,"REV_AT_EPOCH":25799,"BSTAR":0.00092271348,"MEAN_MOTION_DOT":1.2e-7,"MEAN_MOTION_DDOT":0},{"OBJECT_NAME":"UNKNOWN","OBJECT_ID":"","EPOCH":"2026-09-11T05:41:19.471488","MEAN_MOTION":12.78893492,"ECCENTRICITY":0.00760238,"INCLINATION":66.065,"RA_OF_ASC_NODE":124.8262,"ARG_OF_PERICENTER":264.1388,"MEAN_ANOMALY":95.0957,"EPHEMERIS_TYPE":0,"CLASSIFICATION_TYPE":"U","NORAD_CAT_ID":270247,"ELEMENT_SET_NO":999,"REV_AT_EPOCH":30689,"BSTAR":0.00007994292,"MEAN_MOTION_DOT":-4.3e-7,"MEAN_MOTION_DDOT":0},{"OBJECT_NAME":"UNKNOWN","OBJECT_ID":"","EPOCH":"2026-09-06T11:40:37.795584","MEAN_MOTION":12.25866603,"ECCENTRICITY":0.00571489,"INCLINATION":82.4613,"RA_OF_ASC_NODE":171.8243,"ARG_OF_PERICENTER":21.6155,"MEAN_ANOMALY":338.7308,"EPHEMERIS_TYPE":0,"CLASSIFICATION_TYPE":"U","NORAD_CAT_ID":270248,"ELEMENT_SET_NO":999,"REV_AT_EPOCH":29240,"BSTAR":0.0018472813,"MEAN_MOTION_DOT":0.00000216,"MEAN_MOTION_DDOT":0},{"OBJECT_NAME":"UNKNOWN","OBJECT_ID":"","EPOCH":"2026-09-09T01:35:20.618304","MEAN_MOTION":12.95418817,"ECCENTRICITY":0.00275509,"INCLINATION":90.2476,"RA_OF_ASC_NODE":8.3167,"ARG_OF_PERICENTER":342.3252,"MEAN_ANOMALY":17.6906,"EPHEMERIS_TYPE":0,"CLASSIFICATION_TYPE":"U","NORAD_CAT_ID":270249,"ELEMENT_SET_NO":999,"REV_AT_EPOCH":30944,"BSTAR":0.0012909598,"MEAN_MOTION_DOT":0.00000372,"MEAN_MOTION_DDOT":0},{"OBJECT_NAME":"UNKNOWN","OBJECT_ID":"","EPOCH":"2026-09-11T05:34:09.218496","MEAN_MOTION":12.6049652,"ECCENTRICITY":0.01010649,"INCLINATION":82.4552,"RA_OF_ASC_NODE":76.3372,"ARG_OF_PERICENTER":25.2779,"MEAN_ANOMALY":335.3207,"EPHEMERIS_TYPE":0,"CLASSIFICATION_TYPE":"U","NORAD_CAT_ID":270250,"ELEMENT_SET_NO":999,"REV_AT_EPOCH":29974,"BSTAR":0.0032917593,"MEAN_MOTION_DOT":0.00000597,"MEAN_MOTION_DDOT":0}]